TimeEST,TemperatureF,Dew PointF,Humidity,Sea Level PressureIn,VisibilityMPH,Wind Direction,Wind SpeedMPH,Gust SpeedMPH,PrecipitationIn,Events,Conditions,WindDirDegrees,DateUTC
12:15 AM,50.0,46.4,87,29.96,5.0,ENE,15.0,23.0,0.00,,Overcast,60,2013-02-26 05:15:00
12:35 AM,51.8,48.2,88,29.94,5.0,ENE,20.7,27.6,0.00,,Overcast,60,2013-02-26 05:35:00
12:55 AM,53.6,50.0,88,29.95,6.0,ENE,18.4,26.5,0.00,,Mostly Cloudy,60,2013-02-26 05:55:00
1:15 AM,53.6,51.8,94,29.94,4.0,ENE,16.1,20.7,0.00,,Overcast,60,2013-02-26 06:15:00
1:35 AM,53.6,51.8,94,29.94,4.0,NE,15.0,20.7,0.01,Rain,Light Rain,50,2013-02-26 06:35:00
1:55 AM,53.6,51.8,94,29.92,3.0,ENE,19.6,23.0,0.02,Rain,Light Rain,60,2013-02-26 06:55:00
2:15 AM,55.4,53.6,94,29.91,3.0,ENE,16.1,21.9,0.00,,Overcast,60,2013-02-26 07:15:00
2:35 AM,55.4,53.6,94,29.89,4.0,ENE,17.3,21.9,0.00,,Light Drizzle,60,2013-02-26 07:35:00
3:15 AM,55.4,53.6,94,29.87,2.5,ENE,15.0,20.7,0.01,Rain,Light Rain,60,2013-02-26 08:15:00
3:35 AM,55.4,55.4,100,29.86,1.5,NE,12.7,25.3,0.09,Rain,Light Rain,50,2013-02-26 08:35:00
3:55 AM,57.2,55.4,94,29.85,4.0,ENE,11.5,-,0.09,Rain,Light Rain,60,2013-02-26 08:55:00
4:15 AM,57.2,55.4,94,29.84,2.5,NE,9.2,-,0.01,Rain,Light Rain,50,2013-02-26 09:15:00
4:35 AM,57.2,57.2,100,29.82,3.0,ENE,9.2,-,0.03,Rain,Light Rain,60,2013-02-26 09:35:00
4:55 AM,57.2,57.2,100,29.80,2.5,ENE,15.0,-,0.06,Rain,Light Rain,60,2013-02-26 09:55:00
5:15 AM,57.2,57.2,100,29.80,2.5,East,10.4,-,0.01,,Overcast,80,2013-02-26 10:15:00
5:35 AM,57.2,57.2,100,29.79,4.0,ENE,13.8,-,0.01,,Overcast,70,2013-02-26 10:35:00
5:55 AM,60.8,59.0,94,29.79,3.0,ENE,13.8,-,0.01,,Overcast,70,2013-02-26 10:55:00
6:15 AM,60.8,59.0,94,29.79,2.5,East,11.5,-,0.00,,Overcast,80,2013-02-26 11:15:00
6:35 AM,60.8,60.8,100,29.76,2.0,East,10.4,-,0.00,,Overcast,80,2013-02-26 11:35:00
6:55 AM,62.6,62.6,100,29.76,3.0,East,12.7,17.3,0.00,,Overcast,90,2013-02-26 11:55:00
7:15 AM,62.6,62.6,100,29.76,3.0,SE,9.2,-,0.00,,Overcast,130,2013-02-26 12:15:00
7:35 AM,62.6,60.8,94,29.75,5.0,SE,12.7,16.1,0.00,,Overcast,130,2013-02-26 12:35:00
7:55 AM,62.6,60.8,94,29.73,4.0,ESE,19.6,24.2,0.01,,Mostly Cloudy,120,2013-02-26 12:55:00
8:15 AM,62.6,60.8,94,29.74,5.0,ESE,13.8,21.9,0.01,,Overcast,120,2013-02-26 13:15:00
8:35 AM,64.4,64.4,100,29.75,1.2,SE,12.7,28.8,0.05,,Overcast,140,2013-02-26 13:35:00
8:55 AM,66.2,64.4,94,29.75,2.0,SE,12.7,20.7,0.09,Rain,Light Rain,140,2013-02-26 13:55:00
9:15 AM,66.2,64.4,94,29.73,2.0,SE,16.1,33.4,0.02,,Overcast,130,2013-02-26 14:15:00
9:35 AM,66.2,64.4,94,29.73,1.8,SE,12.7,19.6,0.03,,Overcast,140,2013-02-26 14:35:00
9:55 AM,66.2,64.4,94,29.72,1.2,SE,16.1,26.5,0.15,Rain,Light Rain,130,2013-02-26 14:55:00
10:15 AM,66.2,66.2,100,29.71,2.5,SE,16.1,26.5,0.00,,Overcast,140,2013-02-26 15:15:00
10:35 AM,66.2,64.4,94,29.73,1.5,SSE,15.0,24.2,0.02,,Overcast,160,2013-02-26 15:35:00
10:55 AM,64.4,64.4,100,29.73,1.2,South,16.1,21.9,0.06,,Overcast,180,2013-02-26 15:55:00
11:15 AM,68.0,64.4,88,29.73,2.5,SSW,24.2,31.1,0.00,Rain,Light Rain,200,2013-02-26 16:15:00
11:35 AM,68.0,64.4,88,29.71,3.0,South,21.9,27.6,0.00,,Mostly Cloudy,190,2013-02-26 16:35:00
11:55 AM,68.0,64.4,88,29.69,3.0,South,20.7,29.9,0.00,,Mostly Cloudy,190,2013-02-26 16:55:00
12:15 PM,69.8,64.4,83,29.67,5.0,South,17.3,29.9,0.00,,Haze,190,2013-02-26 17:15:00
12:35 PM,71.6,64.4,78,29.66,5.0,SSW,16.1,27.6,0.00,,Haze,200,2013-02-26 17:35:00
12:55 PM,69.8,64.4,83,29.64,5.0,SSW,20.7,29.9,0.00,,Haze,200,2013-02-26 17:55:00
1:15 PM,71.6,64.4,78,29.63,4.0,SSW,18.4,31.1,0.00,,Haze,200,2013-02-26 18:15:00
1:35 PM,71.6,64.4,78,29.62,5.0,SSW,25.3,35.7,0.00,,Haze,200,2013-02-26 18:35:00
1:55 PM,69.8,64.4,83,29.61,4.0,South,25.3,39.1,0.00,,Haze,190,2013-02-26 18:55:00
2:15 PM,69.8,64.4,83,29.60,4.0,South,23.0,35.7,0.00,,Haze,190,2013-02-26 19:15:00
2:35 PM,71.6,64.4,78,29.61,5.0,SSW,23.0,34.5,0.00,,Haze,200,2013-02-26 19:35:00
2:55 PM,69.8,64.4,83,29.61,5.0,SSW,24.2,33.4,0.00,,Haze,210,2013-02-26 19:55:00
3:15 PM,69.8,62.6,78,29.62,5.0,SSW,20.7,29.9,0.00,,Haze,210,2013-02-26 20:15:00
3:35 PM,69.8,62.6,78,29.62,5.0,SSW,23.0,33.4,0.00,,Haze,210,2013-02-26 20:35:00
3:55 PM,68.0,62.6,83,29.62,6.0,SSW,18.4,32.2,0.00,,Haze,210,2013-02-26 20:55:00
4:15 PM,66.2,62.6,88,29.62,5.0,SSW,18.4,32.2,0.00,,Partly Cloudy,210,2013-02-26 21:15:00
4:35 PM,66.2,62.6,88,29.61,5.0,SSW,15.0,27.6,0.00,,Partly Cloudy,210,2013-02-26 21:35:00
5:15 PM,66.2,62.6,88,29.61,5.0,SW,16.1,27.6,0.00,,Haze,220,2013-02-26 22:15:00
5:35 PM,66.2,62.6,88,29.61,5.0,SW,13.8,21.9,0.00,,Clear,220,2013-02-26 22:35:00
6:15 PM,64.4,60.8,88,29.61,5.0,SW,15.0,-,0.00,,Clear,220,2013-02-26 23:15:00
6:35 PM,64.4,59.0,83,29.62,5.0,SSW,15.0,18.4,0.00,,Haze,210,2013-02-26 23:35:00
7:15 PM,64.4,57.2,77,29.64,7.0,SSW,9.2,-,0.00,,Clear,210,2013-02-27 00:15:00
7:35 PM,64.4,57.2,77,29.65,8.0,SSW,11.5,-,0.00,,Clear,210,2013-02-27 00:35:00
8:15 PM,64.4,55.4,73,29.67,8.0,SW,11.5,19.6,0.00,,Clear,220,2013-02-27 01:15:00
8:35 PM,62.6,53.6,72,29.68,9.0,SW,10.4,-,0.00,,Clear,230,2013-02-27 01:35:00
8:55 PM,62.6,53.6,72,29.68,8.0,SSW,8.1,-,0.00,,Clear,210,2013-02-27 01:55:00
9:15 PM,62.6,53.6,72,29.69,8.0,SSW,9.2,-,0.00,,Clear,210,2013-02-27 02:15:00
9:35 PM,62.6,51.8,68,29.69,9.0,SW,12.7,-,0.00,,Clear,220,2013-02-27 02:35:00
9:55 PM,64.4,50.0,59,29.70,10.0,SW,12.7,17.3,0.00,,Clear,230,2013-02-27 02:55:00
10:15 PM,64.4,50.0,59,29.70,9.0,SW,12.7,19.6,0.00,,Clear,220,2013-02-27 03:15:00
10:35 PM,64.4,50.0,59,29.71,10.0,SW,11.5,-,0.00,,Clear,230,2013-02-27 03:35:00
10:55 PM,64.4,48.2,56,29.72,10.0,SW,9.2,18.4,0.00,,Clear,220,2013-02-27 03:55:00
11:15 PM,64.4,48.2,56,29.71,10.0,SW,11.5,18.4,0.00,,Clear,230,2013-02-27 04:15:00
11:35 PM,64.4,48.2,56,29.72,10.0,SSW,9.2,-,0.00,,Clear,210,2013-02-27 04:35:00
11:55 PM,62.6,50.0,63,29.72,10.0,SW,12.7,19.6,0.00,,Clear,230,2013-02-27 04:55:00